STARLINK-5679, 55467

Orbit data source: Space-Track

STARLINK-5679, 55467 is a payload satellite owned by SpaceX/Seattle (US) in LEO that was launched on Thu, 02 Feb 2023 UTC via an FALCON 9 launch vehicle from the Air Force Eastern Test Range (AFETR). Payload-class satellites include a variety of spacecraft equipped with specific instruments for various scientific and technological missions. These include communications satellites like Starlink; space stations such as the ISS; scientific satellites like the Hubble; Earth observation satellites from companies like Planet Labs, Umbra, and HawkEye 360; GPS; miniature CubeSats for education and research; and military/defense satellites.

Loading next visibility...
Identifier
55467, 2023-015U
Orbit
LEO
Country
Flag of USUS
Related business
Manufacturer
SpaceX/Seattle
Mission
Operational Commercial Communications
Bus & Motor
STARLINK, Unknown motor
Mass
305 kg wet, ~290 kg dry
Launch date (UTC)
2023-02-02 (3 years ago)
Launch vehicle
FALCON 9
Launch site
Air Force Eastern Test Range (AFETR)
Object type
Payload
Rocket body
Debris
Shape & HBR
Box + 1 Pan, 10.1 m
Radar Cross Section
13.562 m², Large (>1 m²)

Expand to show TLE details & history
Last TLE update: 22 hours ago

TLE from 22 hours ago
0 STARLINK-5679
1 55467U 23015U   25352.45060433 -.00000451  00000-0 -18332-4 0  9993
2 55467  43.0051  47.4109 0001335 268.5110  91.5580 15.02536227158535
Epoch: 2025-12-18T10:48Z
TLE epoch observation values (Epoch: 2025-12-18T10:48:52.214Z)
Latitude
0.00004°
Longitude
157.88745°
Altitude
558.883 km
Speed
7.584 km/s
True Right ascension
03h 09m 38s
True Declination
0° 00' 00"
Sunlit
Object was in full shadow at epoch
Visualization orbit readout
Latitude
Unknown
Longitude
Unknown
Altitude
Unknown
Speed
Unknown
Apparent Right ascension
Unknown
Apparent Declination
Unknown
Sunlit
N/A
Visualization observer readout
Local Sidereal Time
07:45:53
Azimuth
Unknown
Elevation
Unknown
Doppler factor
Unknown
Orbital elements
Apogee altitude
561.928 km
Perigee altitude
560.076 km
Semi-major axis
6,939.139 km
Eccentricity
0.00013
Inclination
43.0051°
RAAN
47.4109°
Arg. of periapsis
268.511°
True anomaly
91.57329°
Mean anomaly
91.558°
Eccentric anomaly
91.56565°
Mean motion
3.75478 °/min
Orbital period
95.88 mins
BSTAR
-0.000018332
Loading maneuver chart data...
Computing Atmospheric mass density...
Loading historical data...
Loading historical data...
Loading historical data...
Loading historical data...
Loading historical data...
Loading historical data...
Loading historical data...

Documentation

Showing up to 5 results
|